GEFSCGP_con_probscp_150.txt.gz
Probability
0 0 0 0 0 0 0 1 3 3 1 0 1 5 9 14 17 16 12 11 15 17 15 14 12 10 9 9 7 5 4 3 2 2 2 2 2 2 1 0 0 0 0 0
0 0 0 0 0 0 0 1 2 2 1 1 2 5 9 13 16 16 13 13 16 16 14 12 10 9 8 7 5 3 2 1 1 1 1 1 1 1 0 0 0 0 0 0
0 0 0 0 0 0 0 1 1 1 1 1 2 5 7 10 12 12 12 14 15 14 12 10 8 7 7 6 4 2 0 0 0 0 0 0 0 0 0 0 0 0 0 0
0 0 0 0 0 0 0 0 0 0 0 0 1 2 4 6 6 5 7 11 14 13 12 10 8 6 6 6 3 1 0 0 0 0 0 0 0 0 0 0 0 0 0 0
0 0 0 0 0 0 0 0 0 0 0 0 0 0 1 2 2 2 6 10 13 13 10 9 8 7 7 5 2 0 0 0 0 0 0 0 0 0 0 0 0 0 0 0
0 0 0 0 0 0 0 0 0 0 0 0 0 0 0 1 1 4 8 12 13 11 8 8 10 10 8 5 2 0 0 0 0 0 0 0 0 0 0 0 0 0 0 0
0 0 0 0 0 0 0 0 0 0 0 0 0 0 0 1 3 5 8 11 11 8 6 8 10 11 9 5 2 0 0 0 0 0 0 0 0 0 0 0 0 0 0 0
0 0 0 0 0 0 0 0 0 0 0 0 0 0 0 1 2 3 5 7 6 5 6 9 10 10 8 4 1 0 0 0 0 0 0 0 0 0 0 0 0 0 0 0
0 0 0 0 0 0 0 0 0 0 0 0 0 0 0 1 1 1 1 2 4 5 7 9 10 8 5 2 1 0 0 0 0 0 0 0 0 0 0 0 0 0 0 0
0 0 0 0 0 0 0 0 0 0 0 0 0 0 0 0 0 0 0 2 4 6 7 7 8 5 2 1 0 0 0 0 0 0 0 0 0 0 0 0 0 0 0 0
0 0 0 0 0 0 0 0 0 0 0 0 0 0 0 0 0 0 1 3 5 5 5 5 4 2 0 0 0 0 0 0 0 0 0 0 0 0 0 0 0 0 0 0
0 0 0 0 0 0 0 0 0 0 0 0 0 0 0 0 0 0 1 3 5 4 3 3 2 1 1 1 1 1 0 0 0 0 0 0 0 0 0 0 0 0 0 0
0 0 0 0 0 0 0 0 0 0 0 0 0 0 0 0 0 0 0 2 4 4 2 1 1 1 1 2 2 2 1 0 0 0 0 0 0 0 0 0 0 0 0 0
0 0 0 0 0 0 0 0 0 0 0 0 0 0 0 0 0 0 0 1 3 3 2 1 0 0 1 2 2 2 1 0 0 0 0 0 0 0 0 0 0 0 0 0
0 0 0 0 0 0 0 0 0 0 0 0 0 0 0 0 0 0 0 1 2 2 1 1 0 0 0 1 1 1 0 0 0 0 0 0 0 0 0 0 0 0 0 0
0 0 0 0 0 0 0 0 0 0 0 0 0 0 0 0 0 0 0 0 1 1 1 1 1 1 1 0 0 0 0 0 0 0 0 0 0 0 0 0 0 0 0 0
0 0 0 0 0 0 0 0 0 0 0 0 0 0 0 0 0 0 0 0 0 0 1 2 2 2 1 0 0 0 0 0 0 0 0 0 0 0 0 0 0 0 0 0
0 0 0 0 0 0 0 0 0 0 0 0 0 0 0 0 0 0 0 0 0 0 1 1 1 1 1 0 0 0 0 0 0 0 0 0 0 0 0 0 0 0 0 0
0 0 0 0 0 0 0 0 0 0 0 0 0 0 0 0 0 0 0 0 0 0 0 0 0 0 0 0 0 0 0 0 0 0 0 0 0 0 0 0 0 0 0 0
0 0 0 0 0 0 0 0 0 0 0 0 0 0 0 0 0 0 0 0 0 0 0 0 0 0 0 0 0 0 0 0 0 0 0 0 0 0 0 0 0 0 0 0
0 0 0 0 0 0 0 0 0 0 0 0 0 0 0 0 0 0 0 0 0 0 0 0 0 0 0 0 0 0 0 0 0 0 0 0 0 0 0 0 0 0 0 0
0 0 0 0 0 0 0 0 0 0 0 0 0 0 0 0 0 0 0 0 0 0 0 0 0 0 0 0 0 0 0 0 0 0 0 0 0 0 0 0 0 0 0 0
0 0 0 0 0 0 0 0 0 0 0 0 0 0 0 0 0 0 0 0 0 0 0 0 0 0 0 0 0 0 0 0 0 0 0 0 0 0 0 0 0 0 0 0
0 0 0 0 0 0 0 0 0 0 0 0 0 0 0 0 0 0 0 0 0 0 0 0 0 0 0 0 0 0 0 0 0 0 0 0 0 0 0 0 0 0 0 0
0 0 0 0 0 0 0 0 0 0 0 0 0 0 0 0 0 0 0 0 0 0 0 0 0 0 0 0 0 0 0 0 0 0 0 0 0 0 0 0 0 0 0 0
0 0 0 0 0 0 0 0 0 0 0 0 0 0 0 0 0 0 0 0 0 0 0 0 0 0 0 0 0 0 0 0 0 0 0 0 0 0 0 0 0 0 0 0

GEFSCGP_con_probscp_156.txt.gz
Probability
0 0 0 0 1 0 0 1 2 2 2 3 2 3 8 11 12 14 17 19 18 19 20 21 21 21 21 22 23 24 24 24 23 20 16 14 10 8 6 3 2 1 1 1
0 0 0 0 1 0 0 1 2 1 1 2 1 2 6 10 12 13 16 18 19 19 20 22 22 21 21 21 21 22 23 23 21 18 15 13 11 9 7 5 4 3 2 2
0 0 0 0 1 1 1 1 1 0 1 2 1 2 4 8 10 11 14 19 21 20 21 22 23 23 23 22 20 21 22 20 17 15 14 13 12 10 8 8 7 6 4 4
0 0 0 0 0 1 1 1 0 0 1 2 2 2 4 5 7 9 12 17 22 22 20 20 21 23 23 21 20 21 20 19 17 17 16 15 13 10 10 12 12 10 7 6
0 0 0 0 0 1 1 0 0 0 0 1 1 1 2 3 4 7 11 16 22 24 20 16 16 18 20 20 22 23 22 20 20 20 19 16 13 12 13 15 16 14 11 9
0 0 0 0 0 0 0 0 0 0 0 0 0 0 1 2 3 6 11 18 23 24 19 15 13 15 18 21 24 25 24 21 20 20 18 16 14 15 16 18 17 16 14 13
0 0 0 0 0 0 0 0 0 0 0 0 0 1 3 6 6 9 14 20 22 21 17 16 14 15 19 23 25 25 22 20 19 18 15 14 14 17 18 18 16 15 15 15
0 0 0 0 0 0 0 0 0 0 0 0 0 2 5 8 9 11 16 19 19 18 17 17 17 19 22 24 23 22 21 18 15 13 12 11 12 15 16 14 12 12 13 13
0 0 0 0 0 0 0 0 0 0 0 0 1 3 5 7 8 11 13 14 14 16 18 18 19 21 22 21 19 18 17 14 10 9 8 8 8 11 11 9 7 8 9 8
0 0 0 0 0 0 0 0 0 0 0 0 1 3 4 5 7 7 9 10 12 15 18 18 18 19 19 17 14 13 12 9 7 6 6 5 5 7 6 5 4 5 5 3
0 0 0 0 0 0 0 0 0 0 0 0 0 1 4 8 8 8 8 10 13 15 17 15 14 14 15 13 12 10 9 7 5 5 4 3 3 4 3 3 3 3 2 1
0 0 0 0 0 0 0 0 0 0 0 0 0 1 4 9 11 10 10 12 13 15 14 12 11 11 11 10 9 9 9 7 5 4 4 4 4 3 2 2 2 1 0 0
0 0 0 0 0 0 0 0 0 0 0 0 0 1 3 7 9 9 10 10 11 12 12 10 8 8 8 7 6 7 7 6 4 4 5 5 5 4 3 1 1 0 0 0
0 0 0 0 0 0 0 0 0 0 0 0 0 0 2 4 6 7 8 8 8 9 9 9 7 6 7 6 5 4 5 4 4 4 4 4 4 5 4 1 0 0 0 0
1 1 0 0 0 0 0 0 0 0 0 0 0 0 3 5 5 5 6 6 6 7 7 7 6 5 6 5 4 3 3 3 3 3 3 3 3 4 3 1 0 0 0 0
2 1 0 0 0 0 0 0 0 0 0 0 0 2 5 7 6 4 4 4 5 6 6 6 6 5 5 5 4 3 3 3 3 3 3 3 2 2 1 0 0 0 0 0
1 1 0 0 0 0 0 0 0 0 0 0 1 2 4 4 4 2 2 3 4 5 6 5 5 5 5 5 4 3 3 3 3 2 2 1 1 1 0 0 0 0 0 0
0 0 0 0 0 0 0 0 0 0 0 0 1 2 2 1 1 1 2 3 3 4 5 4 4 5 5 4 3 3 3 2 1 1 1 0 0 0 0 0 0 0 0 0
0 0 0 0 0 0 0 0 0 0 0 0 0 0 0 0 0 0 1 2 2 3 4 4 5 5 4 3 3 3 1 1 0 0 0 0 0 0 0 0 0 0 0 0
0 0 0 0 0 0 0 0 0 0 0 0 0 0 0 0 0 1 2 2 2 2 3 4 5 4 3 2 2 2 1 0 0 0 0 0 0 0 0 0 0 0 0 0
1 1 0 0 0 0 0 0 0 0 0 0 0 0 0 0 0 1 3 3 2 1 2 3 3 2 1 1 1 1 0 0 0 0 0 0 0 0 0 0 0 0 0 0
0 0 0 0 0 0 0 0 0 0 0 0 0 0 0 0 1 2 3 3 2 1 1 3 2 1 0 0 0 0 0 0 0 0 0 0 0 0 0 0 0 0 0 0
0 0 0 0 0 0 0 0 0 0 0 0 0 0 0 0 1 2 3 3 2 1 2 3 2 1 0 0 0 0 0 0 0 0 0 0 0 0 0 0 0 0 0 0
1 1 0 0 0 0 0 0 0 0 0 0 0 0 0 1 1 2 3 3 2 1 1 2 2 1 0 0 0 0 0 0 0 0 0 0 0 0 0 0 0 0 0 0
3 2 1 0 0 0 0 0 0 0 0 1 1 1 0 0 1 2 2 2 1 1 1 1 1 0 0 0 0 0 0 0 0 0 0 0 0 0 0 0 0 0 0 0
3 3 2 1 0 0 0 0 0 0 0 1 2 2 1 0 0 1 1 1 1 0 0 1 0 0 0 0 0 0 0 0 0 0 0 0 0 0 0 0 0 0 0 0

GEFSCGP_con_probscp_162.txt.gz
Probability
0 0 0 0 0 0 0 0 0 1 0 1 6 12 16 17 19 23 28 34 42 46 46 46 45 43 41 41 41 40 41 44 50 53 52 48 44 39 34 34 34 33 31 30
0 0 0 0 0 0 0 0 1 2 1 2 5 11 15 18 20 25 29 35 42 47 48 47 44 40 39 40 40 40 41 44 49 52 49 45 41 37 34 33 34 33 30 30
0 0 0 0 0 0 0 0 1 2 1 2 4 7 13 18 21 26 31 37 42 45 48 48 43 39 39 40 40 40 41 42 46 48 44 39 36 33 31 31 32 31 29 27
0 0 0 0 0 0 0 0 1 1 1 1 2 4 11 19 22 25 30 34 36 39 43 45 41 39 40 40 40 42 42 42 42 42 39 35 32 30 29 28 28 29 27 25
0 0 0 0 0 0 0 0 0 0 0 0 1 4 10 18 24 26 27 28 30 34 38 38 37 38 40 40 40 42 42 41 39 38 36 34 32 29 27 25 26 27 26 24
0 0 0 0 0 0 0 0 0 0 0 0 1 4 10 16 22 26 26 25 27 32 35 35 34 36 37 38 39 39 40 38 36 35 35 34 32 28 25 24 24 24 23 22
0 0 0 0 0 0 0 0 0 0 0 0 0 3 9 12 17 23 25 26 28 32 34 34 33 35 36 36 36 37 36 34 32 32 33 33 29 24 21 20 20 19 19 17
0 0 0 0 0 0 0 0 0 0 0 0 0 3 8 11 15 21 25 26 27 30 32 32 33 35 35 34 33 33 32 29 26 26 28 28 25 19 16 14 14 14 14 13
0 0 0 0 0 0 0 0 0 0 0 0 1 4 7 11 16 22 26 26 26 27 29 31 32 34 33 31 30 29 28 24 21 20 21 22 20 17 14 12 10 9 9 9
0 0 0 0 0 0 0 0 0 0 0 0 0 3 6 9 14 20 25 27 26 27 28 28 29 30 29 28 26 26 24 20 17 16 17 16 15 15 14 11 9 8 7 7
0 0 0 0 0 0 0 0 0 0 0 0 0 3 8 12 13 18 25 27 26 25 25 26 27 28 27 25 24 22 20 17 16 16 16 14 12 12 11 10 10 9 7 6
0 0 0 0 0 0 0 0 0 0 0 0 0 5 13 18 18 20 24 26 24 22 23 26 27 27 24 23 22 19 16 14 14 15 14 12 11 10 9 9 9 9 7 5
0 0 0 0 0 0 0 0 0 0 0 0 1 6 16 21 22 23 25 25 24 22 22 23 25 25 23 21 19 16 14 14 13 11 10 10 9 8 7 7 8 7 6 5
0 0 0 0 0 0 0 0 0 0 0 0 1 5 14 20 21 22 24 23 21 19 18 19 21 22 20 18 15 12 12 12 11 9 8 8 7 7 6 7 7 7 6 5
1 0 0 0 0 0 0 0 0 0 0 0 0 4 11 17 20 21 22 19 14 13 14 15 17 17 16 14 11 9 9 10 8 8 8 8 7 6 6 7 7 7 6 5
1 0 0 0 0 0 0 0 0 0 0 0 1 6 13 20 22 22 21 14 7 7 10 12 12 13 12 10 8 8 8 7 5 6 7 7 7 6 6 6 6 5 4 3
1 1 0 0 0 0 0 0 0 0 0 0 2 9 19 25 25 23 18 11 5 5 6 8 9 10 10 9 8 8 7 5 4 4 6 7 7 5 4 3 3 2 1 1
1 1 0 0 0 0 0 0 0 0 1 2 5 13 23 26 23 18 14 10 7 4 4 4 5 7 8 9 9 8 6 4 3 3 4 5 5 3 2 1 1 0 0 0
0 0 0 0 0 0 0 0 0 1 2 4 9 17 23 21 14 10 9 9 6 5 4 4 4 4 6 8 7 6 6 4 3 3 3 3 3 1 1 0 0 0 0 1
0 0 0 0 0 0 0 0 0 1 3 5 9 15 17 12 8 7 8 6 5 5 5 5 4 4 5 6 6 6 6 5 3 2 2 1 1 0 0 0 0 0 0 1
0 0 0 0 0 0 0 1 1 1 3 6 8 10 10 8 8 9 7 4 3 3 5 6 6 4 4 4 4 5 5 4 2 1 1 0 0 0 0 0 0 0 0 1
0 0 0 0 1 1 2 2 2 3 5 6 8 9 8 8 8 7 5 2 1 1 3 5 5 4 3 4 4 4 4 3 1 0 0 0 1 1 1 1 1 1 1 0
0 0 0 0 2 3 3 3 4 5 6 7 8 8 7 6 6 4 2 0 0 0 1 3 4 3 3 3 3 3 3 3 2 1 0 1 2 2 1 1 1 1 1 1
0 1 1 1 2 3 3 4 4 5 6 6 6 6 6 5 4 3 2 1 1 1 1 2 3 3 3 4 3 3 3 3 3 2 1 1 2 1 1 0 0 1 1 0
0 1 1 1 1 1 1 2 2 3 4 4 4 4 4 4 4 4 4 4 4 3 3 3 4 4 4 5 4 3 3 3 2 2 1 1 1 0 0 0 0 0 0 0
0 0 1 0 0 1 1 1 1 1 2 2 3 3 3 4 5 6 6 6 6 5 5 5 5 4 5 5 4 3 3 3 2 1 0 0 0 0 0 0 0 0 0 0

GEFSCGP_con_probscp_168.txt.gz
Probability
0 0 0 0 0 0 1 1 0 0 0 2 6 10 13 17 23 27 30 31 29 27 26 26 26 29 33 35 35 34 31 27 23 20 19 16 14 15 15 13 11 12 13 14
0 0 0 0 0 0 1 1 0 0 1 2 5 8 10 14 18 23 26 28 26 25 26 27 26 25 30 34 34 32 30 27 22 20 19 17 15 15 15 13 11 11 13 14
0 0 0 0 0 0 1 1 0 0 1 2 3 4 6 9 14 17 20 21 22 24 26 26 22 20 23 29 30 29 27 24 21 20 20 18 16 15 14 11 10 11 13 13
0 0 0 0 0 0 0 0 0 0 0 1 1 2 3 6 9 13 14 16 19 23 25 22 17 16 18 23 26 26 24 21 19 20 20 18 15 13 10 8 8 10 12 13
0 0 0 0 0 0 0 0 0 0 0 0 0 1 1 2 5 8 11 15 18 21 23 20 16 16 17 21 24 25 22 19 18 19 19 16 13 10 8 6 6 8 10 11
0 0 0 0 0 0 0 0 0 0 0 0 0 0 0 0 2 5 10 14 16 18 19 18 17 18 19 21 24 24 21 18 16 16 16 14 11 10 8 7 6 7 8 9
0 0 0 0 0 0 0 0 0 1 0 0 0 0 0 0 3 6 9 11 12 13 15 16 17 17 18 21 22 21 18 15 13 12 12 11 10 9 9 8 6 6 6 5
0 0 0 0 0 0 0 0 0 0 0 0 0 0 0 1 5 9 10 11 10 10 11 14 15 16 16 18 19 17 15 14 12 10 10 9 9 8 8 7 6 5 4 2
0 0 0 0 0 0 0 0 0 0 0 0 0 0 0 2 5 9 11 12 10 9 9 12 14 15 14 13 14 14 13 12 10 9 8 7 7 6 6 6 5 5 3 2
0 0 0 0 0 0 0 0 0 0 0 0 0 0 0 1 3 5 8 10 9 8 9 11 14 13 12 10 9 10 10 10 8 7 6 5 4 3 3 4 4 4 3 3
0 0 0 0 0 0 0 0 0 0 0 0 0 0 0 0 1 1 3 5 6 6 8 11 12 11 10 8 6 6 6 7 6 5 4 4 3 1 1 1 1 2 3 3
0 0 0 0 0 0 0 0 0 0 0 0 0 0 0 0 0 0 0 2 3 5 7 8 8 8 8 7 5 4 4 4 5 4 3 3 3 2 1 0 0 1 1 2
0 0 0 0 0 0 0 0 0 0 0 0 0 0 0 1 1 1 1 2 3 4 6 6 5 4 4 5 5 4 3 4 5 5 4 3 3 3 2 1 0 0 0 1
0 0 0 0 0 0 0 0 0 0 0 0 0 0 0 2 3 3 2 3 3 3 4 4 2 1 1 3 4 3 3 4 5 5 4 3 3 3 3 1 0 0 0 0
0 0 0 0 0 0 0 0 0 0 0 0 0 0 1 3 5 4 3 3 2 2 2 2 0 0 0 1 2 2 3 3 4 5 4 3 3 3 3 2 1 0 0 0
0 0 0 0 0 0 0 0 0 0 0 0 0 0 1 4 5 4 3 2 1 1 1 0 0 0 0 0 1 1 3 3 3 4 3 3 3 3 3 3 1 0 0 0
0 0 0 0 0 0 0 0 0 0 0 0 0 1 3 4 3 1 1 1 0 0 0 0 0 0 0 0 0 2 3 3 3 3 3 3 3 3 3 3 2 1 0 0
0 0 0 0 0 0 0 0 0 0 0 0 0 1 3 3 1 0 0 0 0 0 0 0 0 0 0 0 0 1 2 3 3 3 3 3 3 3 3 3 2 1 0 0
0 0 0 0 0 0 0 0 0 0 0 0 0 0 1 2 1 0 0 0 0 0 0 0 0 0 0 0 1 2 2 2 3 3 3 3 3 3 3 2 1 0 0 0
0 0 0 0 0 0 0 0 0 0 0 0 1 1 0 0 0 0 0 0 0 0 0 0 0 0 0 0 1 2 2 1 1 2 3 3 3 2 2 1 0 0 0 0
0 0 0 0 0 0 0 1 1 1 0 0 1 1 1 0 0 0 0 0 0 0 0 0 0 0 0 1 2 3 2 1 0 1 2 2 1 1 1 0 0 0 0 0
0 0 0 0 0 0 0 1 1 1 0 0 1 1 1 0 0 0 0 0 0 0 0 0 0 0 0 1 2 3 2 1 0 0 1 1 0 0 0 0 0 0 0 0
0 0 0 0 0 0 0 0 0 0 0 0 0 0 0 0 0 0 0 0 0 0 0 0 0 0 0 1 3 3 2 1 0 0 0 0 0 0 0 0 0 0 0 0
0 0 0 0 0 0 0 0 0 0 0 0 0 0 0 0 0 0 0 0 0 0 0 0 0 0 1 2 3 3 2 1 0 0 0 0 0 0 0 0 0 0 0 0
0 0 0 0 0 0 0 0 0 0 0 0 0 0 0 0 0 0 0 0 0 0 0 0 0 0 1 2 3 3 2 1 0 0 0 0 0 0 0 0 0 0 0 0
0 0 0 0 0 0 0 0 0 0 0 0 0 0 0 0 0 0 0 0 0 0 0 0 0 0 0 1 3 3 2 1 0 0 0 0 0 0 0 0 0 0 0 0

GEFSCGP_con_probscp_174.txt.gz
Probability
0 0 0 0 0 0 0 0 0 0 1 1 1 3 4 4 4 6 10 12 13 12 10 10 10 11 13 15 15 13 9 6 7 11 12 11 10 8 6 5 4 4 4 5
0 0 0 0 0 0 0 0 0 0 0 0 1 2 3 3 3 4 7 10 11 11 11 11 11 11 12 15 16 14 11 8 8 10 11 9 8 6 5 4 4 4 3 4
0 0 0 0 0 0 0 0 0 0 0 0 0 1 1 2 2 2 4 6 9 11 12 12 12 11 10 11 14 14 13 11 9 9 10 8 6 5 4 4 4 3 3 3
0 0 0 0 0 0 0 0 0 0 0 0 0 0 1 2 2 1 1 3 6 9 11 12 12 10 8 8 11 12 11 11 10 10 10 8 5 4 4 3 3 3 3 3
0 0 0 0 0 0 0 0 0 0 0 0 0 0 0 1 1 0 0 1 3 6 8 10 9 7 7 8 9 10 9 9 10 9 9 8 6 4 3 3 3 3 3 2
0 0 0 0 0 0 0 0 0 0 0 0 0 0 0 0 0 0 0 0 2 4 6 6 5 5 7 10 11 10 9 8 7 7 7 8 6 4 3 3 3 3 1 1
0 0 0 0 0 0 0 0 0 0 0 0 0 0 0 0 0 0 0 1 4 6 5 4 4 6 9 11 12 11 9 7 6 5 5 6 6 4 3 3 3 2 1 0
0 0 0 0 0 0 0 0 0 0 0 0 0 0 0 0 0 0 0 2 5 6 5 4 5 8 10 11 11 11 9 7 5 4 3 4 5 4 3 3 3 2 1 1
0 0 0 0 0 0 0 0 0 0 0 0 0 0 0 0 0 1 2 2 3 4 4 4 5 8 8 8 8 9 9 7 5 3 3 3 4 3 3 2 2 1 1 1
0 0 0 0 0 0 0 0 0 0 0 0 0 0 0 0 0 1 2 2 3 3 3 3 4 5 4 4 5 6 7 6 4 3 3 3 3 3 2 1 1 1 1 1
0 0 0 0 0 0 0 0 0 0 0 0 0 0 0 0 0 1 2 2 2 3 3 3 3 3 2 1 3 5 5 4 3 3 3 3 3 3 2 1 0 0 0 0
0 0 0 0 0 0 0 0 0 0 0 0 0 0 0 0 0 1 2 1 1 2 3 3 2 1 1 2 3 4 4 3 3 3 3 3 3 3 3 1 0 0 0 0
0 0 0 0 0 0 0 0 0 0 0 0 0 0 0 0 1 2 2 1 1 2 3 1 1 0 1 2 3 3 3 3 3 3 3 3 3 3 3 2 1 0 0 0
0 0 0 0 0 0 0 0 0 0 0 0 0 0 0 0 1 2 2 1 1 2 2 1 0 0 0 1 1 1 2 2 3 3 3 3 3 3 3 3 2 1 0 0
0 0 0 0 0 0 0 0 0 0 0 0 0 0 0 0 1 2 2 1 0 1 1 0 0 0 0 0 0 0 1 1 1 2 3 3 3 3 3 3 2 1 0 0
0 0 0 0 0 0 0 0 0 0 0 0 0 0 0 0 1 2 2 1 0 0 0 0 0 0 0 0 0 0 0 0 0 1 3 3 3 3 3 3 3 1 0 0
0 0 0 0 0 0 0 0 0 0 0 0 0 0 0 0 0 1 1 0 0 0 0 0 0 0 0 0 0 0 0 0 0 1 2 2 2 2 2 3 3 2 1 0
0 0 0 0 0 0 0 0 0 0 0 0 0 0 0 0 0 0 0 0 0 0 0 0 0 0 0 0 0 0 0 0 0 0 1 1 1 1 1 1 3 3 2 1
0 0 0 0 0 0 0 0 0 0 0 0 0 0 0 0 1 0 0 0 0 0 0 0 0 0 0 0 0 0 0 0 0 0 0 0 0 0 0 1 2 3 2 1
0 0 0 0 0 0 0 0 0 0 0 0 0 0 0 0 0 0 0 0 0 0 0 0 0 0 0 0 0 0 0 0 0 0 0 0 0 0 0 1 2 2 1 0
0 0 0 0 0 0 0 0 0 0 0 0 0 0 0 1 1 0 0 0 0 0 0 0 0 0 0 0 0 0 0 0 0 0 0 0 0 0 0 1 1 1 0 0
0 0 0 0 0 0 0 0 0 0 0 0 0 0 1 2 2 1 0 0 0 0 0 0 0 0 0 0 0 0 0 0 0 0 0 0 0 0 0 0 0 0 0 0
0 0 0 0 0 0 0 0 0 0 0 0 0 0 1 2 3 2 0 0 0 0 0 0 0 0 0 0 0 0 0 0 0 0 0 0 0 0 0 0 0 0 0 0
0 0 0 0 0 0 0 0 0 0 0 0 0 0 0 1 2 1 0 0 0 0 0 0 0 0 0 0 0 0 0 0 0 0 0 0 0 0 0 0 0 0 0 0
0 0 0 0 0 0 0 0 0 0 0 0 0 0 0 0 0 0 0 0 0 0 0 0 0 0 0 0 0 0 0 0 0 0 0 0 0 0 0 0 0 0 0 0
0 0 0 0 0 0 0 0 0 0 0 0 0 0 0 0 0 0 0 0 0 0 0 0 0 0 0 0 0 0 0 0 0 0 0 0 0 0 0 0 0 0 0 0

GEFSCGP_con_probscp_180.txt.gz
Probability
0 0 0 0 0 0 0 0 0 0 0 0 0 2 3 3 2 2 6 10 13 15 20 23 25 28 32 37 41 43 45 47 45 43 40 35 28 21 17 13 10 8 7 6
0 0 0 0 0 0 0 0 0 0 0 0 1 2 3 2 1 2 7 11 16 20 22 23 24 27 30 33 33 35 38 40 40 37 35 31 25 20 16 14 13 10 8 9
0 0 0 0 0 0 0 0 0 0 0 0 1 2 2 1 1 3 7 13 19 23 24 24 24 24 24 25 25 26 30 33 32 30 28 26 23 19 16 15 14 11 8 8
0 0 0 0 0 0 0 0 0 0 0 0 1 1 0 0 0 3 9 15 19 20 21 23 25 23 20 20 21 23 25 28 27 26 25 25 23 20 17 15 13 10 7 5
0 0 0 0 0 0 0 0 0 0 0 0 0 0 0 1 0 2 8 14 17 17 18 22 26 25 22 21 21 22 22 23 24 24 24 25 23 21 19 18 15 10 7 5
0 0 0 0 0 0 0 0 0 0 0 0 0 0 0 0 0 2 6 10 14 16 16 20 26 27 25 24 23 22 21 21 22 23 23 22 21 20 20 18 14 10 7 6
0 0 0 0 0 0 0 0 0 0 0 0 0 0 0 1 1 2 5 8 11 14 16 19 23 24 22 22 23 22 21 20 20 21 19 16 15 15 16 14 11 8 7 6
0 0 0 0 0 0 0 0 0 0 0 0 0 0 1 2 3 4 5 7 10 13 14 17 20 20 18 18 19 19 19 18 16 15 14 12 10 10 11 10 8 6 6 6
0 0 0 0 0 0 0 0 0 0 0 0 0 0 1 3 5 5 6 7 8 9 11 14 16 16 16 16 15 15 14 12 10 9 10 10 9 8 9 8 5 4 4 4
0 0 0 0 0 0 0 0 0 0 0 0 0 0 1 3 4 5 7 7 6 6 10 12 13 13 14 14 13 12 10 7 6 6 8 8 7 7 8 7 4 3 3 3
1 0 0 0 0 0 0 0 0 0 0 0 0 0 1 2 2 4 6 6 5 7 10 12 10 9 11 11 11 10 8 5 4 4 5 4 4 5 6 5 4 3 3 3
2 1 0 0 0 0 0 0 0 0 0 0 0 0 1 1 0 1 3 4 6 8 9 9 8 6 6 7 8 8 6 4 3 3 3 2 2 3 4 4 3 3 3 3
2 1 0 0 0 0 0 0 0 0 0 0 0 0 0 0 0 0 1 3 5 6 6 6 5 4 3 3 5 5 4 3 3 3 3 3 3 3 3 3 3 3 2 2
1 0 0 0 0 0 0 0 0 0 0 0 0 0 0 0 1 1 1 1 3 4 4 3 3 3 1 1 2 2 2 2 1 1 2 3 3 3 3 3 3 2 1 1
0 0 0 0 0 0 0 0 0 0 0 0 0 0 0 1 2 2 1 1 3 4 3 3 3 2 2 2 2 2 2 2 1 0 1 2 4 4 3 3 3 3 1 1
0 0 0 0 0 1 1 1 0 0 0 0 0 0 1 3 4 3 1 2 3 4 4 3 2 2 2 3 3 1 1 1 0 0 0 1 4 4 4 3 3 3 3 2
1 1 0 0 0 1 1 1 0 0 0 0 0 0 1 3 4 3 2 2 4 4 4 3 2 3 3 3 2 1 0 0 0 0 0 0 2 3 3 3 3 3 3 3
2 2 1 0 0 1 1 0 0 0 0 0 0 0 1 2 3 3 2 2 3 4 4 3 3 4 3 2 1 0 0 0 0 0 0 0 0 1 1 2 3 3 3 3
2 2 2 0 0 0 0 0 0 0 0 0 0 0 0 1 2 2 1 1 1 2 2 2 3 3 2 0 0 0 0 0 0 0 0 0 0 0 0 1 2 3 3 3
2 2 1 0 0 0 0 0 0 0 0 0 1 2 2 2 3 3 2 1 1 1 1 1 1 1 0 0 0 0 0 0 0 0 0 0 0 0 0 0 1 1 2 2
1 1 1 0 0 0 0 0 0 0 0 0 1 2 3 4 5 5 4 3 2 2 2 1 0 0 0 0 0 0 0 0 0 0 0 0 0 0 0 0 0 0 1 1
0 0 0 0 0 0 0 0 0 0 0 0 0 1 2 5 5 4 4 3 3 3 2 1 1 1 1 0 0 0 0 0 0 0 0 0 0 0 0 0 0 0 1 1
0 0 0 1 0 0 0 0 0 1 0 0 0 0 1 2 3 2 2 2 2 2 1 0 1 2 1 0 0 0 0 0 0 0 0 0 0 0 0 0 0 0 0 0
0 0 0 0 0 0 0 0 0 0 0 0 0 0 0 1 1 0 1 1 1 1 0 0 1 2 2 1 0 0 0 0 0 0 0 0 0 0 0 0 0 0 0 0
0 0 0 0 0 0 0 0 0 0 0 0 0 0 0 0 0 0 0 0 0 0 0 0 1 2 2 1 0 0 0 0 0 0 0 0 0 0 0 0 0 0 0 0
0 0 0 0 0 0 0 0 0 0 0 0 0 0 0 0 0 0 0 0 0 0 0 0 0 1 2 2 1 0 0 0 0 0 0 0 0 0 0 0 0 0 0 0

GEFSCGP_con_probscp_186.txt.gz
Probability
0 0 0 0 0 0 0 0 0 1 1 0 1 3 6 7 8 8 11 18 27 32 36 36 37 37 37 38 39 37 34 36 42 43 41 38 35 31 29 29 29 29 27 26
0 0 0 0 0 0 0 0 0 1 1 0 1 3 6 7 9 11 15 19 25 30 33 34 35 35 35 36 37 36 35 35 36 38 37 35 32 29 28 27 28 28 26 24
0 0 0 0 0 0 0 0 0 1 1 0 1 3 6 8 10 12 16 20 22 25 29 31 32 34 34 35 35 34 34 31 29 29 28 28 28 27 26 25 25 25 23 20
0 0 0 0 0 0 0 0 0 0 0 0 1 3 6 9 11 11 14 18 20 22 25 29 32 34 34 33 32 32 32 28 25 24 24 24 23 23 23 22 21 20 17 16
0 0 0 0 0 0 0 0 0 0 1 1 1 2 4 8 10 11 12 15 18 20 24 30 33 32 32 31 30 30 30 27 24 23 23 22 19 18 19 18 16 14 13 13
0 0 0 0 0 0 0 0 0 0 1 1 0 1 2 5 8 10 11 13 18 21 25 30 31 30 30 30 30 29 26 24 24 22 20 19 17 16 15 15 13 12 11 10
0 0 0 0 0 0 0 0 0 0 0 0 0 0 1 5 8 10 11 14 19 21 23 25 26 26 26 26 28 26 22 21 21 19 17 15 14 13 11 10 9 8 7 7
0 0 0 0 0 0 0 0 0 0 0 0 0 0 2 6 9 11 13 15 17 19 19 19 19 19 18 20 22 22 20 17 16 15 14 12 10 8 6 5 5 5 4 4
0 0 0 0 0 0 0 0 0 0 0 0 0 1 3 6 10 11 11 11 14 17 17 15 15 15 13 15 18 19 18 16 14 12 11 9 7 5 4 4 5 4 3 3
0 0 0 0 0 0 0 0 0 0 0 0 0 1 3 6 9 10 7 7 12 17 17 15 16 15 13 13 16 18 18 16 13 11 10 8 6 4 4 5 5 4 3 3
0 0 0 0 0 0 0 0 0 0 0 1 1 1 3 6 8 8 6 5 10 15 16 16 16 15 12 13 15 16 15 14 12 10 9 9 7 4 4 6 6 4 3 3
0 0 0 0 0 0 0 0 0 0 0 1 2 3 4 6 7 8 8 7 10 14 15 14 12 10 10 12 13 13 12 11 9 9 9 9 8 5 4 6 6 5 4 3
0 0 0 0 0 0 0 0 0 0 0 1 2 3 5 5 7 9 10 9 10 13 14 13 12 9 8 9 10 9 9 9 8 8 9 10 9 6 5 5 5 4 3 3
0 0 0 0 0 0 0 0 0 0 0 0 1 2 3 3 5 7 8 9 10 12 14 14 13 12 10 8 8 7 7 7 7 7 9 10 10 8 5 5 4 3 3 3
0 0 0 0 0 0 0 0 0 0 0 0 0 0 1 2 4 5 6 7 8 10 12 13 13 11 10 9 8 8 7 6 6 6 7 9 10 9 7 5 4 3 3 3
1 1 0 0 0 0 0 0 0 0 0 0 1 1 2 3 4 5 6 6 6 7 9 11 11 10 9 9 10 9 7 6 5 4 4 6 7 7 6 4 3 3 3 3
0 0 0 0 0 0 0 0 0 1 1 1 2 4 5 7 7 7 6 5 4 6 8 9 9 10 10 9 11 10 7 5 4 3 3 3 4 4 3 2 1 1 2 2
0 0 0 0 0 0 0 0 0 1 2 2 3 4 6 7 7 7 6 4 4 6 8 10 11 12 12 9 9 9 6 4 3 3 3 3 2 2 2 1 0 0 1 1
0 0 0 0 0 0 0 0 0 1 1 1 1 3 5 6 5 6 6 4 5 8 10 12 13 13 11 8 7 6 4 3 3 3 3 1 1 1 2 3 2 1 1 0
0 0 0 0 0 0 1 0 0 0 0 1 1 3 5 6 5 6 7 6 8 10 11 12 12 11 9 7 6 5 4 3 3 3 3 1 1 1 3 5 5 3 2 1
1 0 0 0 0 0 0 0 0 1 2 2 3 5 6 6 5 6 6 7 7 8 9 9 9 8 6 5 4 4 3 3 2 2 3 3 2 3 4 6 6 4 3 2
2 1 0 0 0 0 0 0 1 3 4 3 4 5 4 4 4 3 4 4 4 3 4 6 6 5 4 3 3 3 2 3 3 2 2 3 3 3 4 6 5 4 3 3
2 1 0 0 0 0 1 0 1 2 3 2 3 4 3 3 3 1 1 2 2 2 2 2 2 2 3 3 3 2 2 3 4 3 2 3 3 4 5 5 5 4 4 3
1 1 1 1 0 0 0 0 0 1 1 1 2 3 3 3 2 1 0 2 3 3 2 2 1 2 3 3 3 2 1 2 4 4 2 2 2 3 5 5 4 4 3 2
1 1 2 1 0 0 0 0 0 0 0 1 1 2 3 3 1 0 0 1 1 2 2 2 2 2 2 2 2 1 0 2 4 4 2 1 1 2 4 5 4 3 3 1
0 1 1 1 0 0 0 0 0 0 0 0 1 1 2 2 1 0 0 0 1 1 2 3 3 2 1 2 1 0 0 2 4 4 2 1 0 1 2 3 2 2 1 1